Year,Month,Day,Hour,Minute,Value (Times are PST for temperature in C)
2012,09,21,00,00,11.10
2012,09,21,00,01,11.20
2012,09,21,00,02,11.20
2012,09,21,00,03,11.20
2012,09,21,00,04,11.20
2012,09,21,00,05,11.20
2012,09,21,00,06,11.20
2012,09,21,00,07,11.20
2012,09,21,00,08,11.20
2012,09,21,00,09,11.10
2012,09,21,00,10,11.10
2012,09,21,00,11,11.10
2012,09,21,00,12,11.10
2012,09,21,00,13,11.10
2012,09,21,00,14,11.10
2012,09,21,00,15,11.10
2012,09,21,00,16,11.10
2012,09,21,00,17,11.10
2012,09,21,00,18,11.10
2012,09,21,00,19,11.00
2012,09,21,00,20,11.00
2012,09,21,00,21,11.00
2012,09,21,00,22,11.00
2012,09,21,00,23,11.00
2012,09,21,00,24,11.00
2012,09,21,00,25,11.00
2012,09,21,00,26,11.00
2012,09,21,00,27,11.00
2012,09,21,00,28,11.10
2012,09,21,00,29,11.10
2012,09,21,00,30,11.10
2012,09,21,00,31,11.10
2012,09,21,00,32,11.10
2012,09,21,00,33,11.10
2012,09,21,00,34,11.10
2012,09,21,00,35,11.10
2012,09,21,00,36,11.10
2012,09,21,00,37,11.10
2012,09,21,00,38,11.10
2012,09,21,00,39,11.10
2012,09,21,00,40,11.10
2012,09,21,00,41,11.10
2012,09,21,00,42,11.10
2012,09,21,00,43,11.00
2012,09,21,00,44,11.00
2012,09,21,00,45,11.00
2012,09,21,00,46,11.00
2012,09,21,00,47,11.00
2012,09,21,00,48,11.00
2012,09,21,00,49,11.00
2012,09,21,00,50,11.00
2012,09,21,00,51,10.90
2012,09,21,00,52,10.90
2012,09,21,00,53,10.90
2012,09,21,00,54,10.90
2012,09,21,00,55,10.90
2012,09,21,00,56,10.80
2012,09,21,00,57,10.80
2012,09,21,00,58,10.80
2012,09,21,00,59,10.80
2012,09,21,01,00,10.80
2012,09,21,01,01,10.80
2012,09,21,01,02,10.80
2012,09,21,01,03,10.70
2012,09,21,01,04,10.70
2012,09,21,01,05,10.70
2012,09,21,01,06,10.70
2012,09,21,01,07,10.70
2012,09,21,01,08,10.70
2012,09,21,01,09,10.70
2012,09,21,01,10,10.80
2012,09,21,01,11,10.80
2012,09,21,01,12,10.80
2012,09,21,01,13,10.80
2012,09,21,01,14,10.80
2012,09,21,01,15,10.80
2012,09,21,01,16,10.80
2012,09,21,01,17,10.80
2012,09,21,01,18,10.80
2012,09,21,01,19,10.80
2012,09,21,01,20,10.80
2012,09,21,01,21,10.80
2012,09,21,01,22,10.80
2012,09,21,01,23,10.80
2012,09,21,01,24,10.80
2012,09,21,01,25,10.70
2012,09,21,01,26,10.70
2012,09,21,01,27,10.70
2012,09,21,01,28,10.70
2012,09,21,01,29,10.70
2012,09,21,01,30,10.70
2012,09,21,01,31,10.70
2012,09,21,01,32,10.70
2012,09,21,01,33,10.70
2012,09,21,01,34,10.70
2012,09,21,01,35,10.60
2012,09,21,01,36,10.60
2012,09,21,01,37,10.60
2012,09,21,01,38,10.60
2012,09,21,01,39,10.60
2012,09,21,01,40,10.60
2012,09,21,01,41,10.60
2012,09,21,01,42,10.60
2012,09,21,01,43,10.60
2012,09,21,01,44,10.60
2012,09,21,01,45,10.60
2012,09,21,01,46,10.60
2012,09,21,01,47,10.60
2012,09,21,01,48,10.60
2012,09,21,01,49,10.60
2012,09,21,01,50,10.60
2012,09,21,01,51,10.60
2012,09,21,01,52,10.60
2012,09,21,01,53,10.60
2012,09,21,01,54,10.70
2012,09,21,01,55,10.70
2012,09,21,01,56,10.70
2012,09,21,01,57,10.70
2012,09,21,01,58,10.70
2012,09,21,01,59,10.70
2012,09,21,02,00,10.70
2012,09,21,02,01,10.70
2012,09,21,02,02,10.80
2012,09,21,02,03,10.80
2012,09,21,02,04,10.80
2012,09,21,02,05,10.90
2012,09,21,02,06,10.90
2012,09,21,02,07,10.90
2012,09,21,02,08,10.90
2012,09,21,02,09,11.00
2012,09,21,02,10,11.00
2012,09,21,02,11,11.00
2012,09,21,02,12,11.00
2012,09,21,02,13,11.00
2012,09,21,02,14,11.00
2012,09,21,02,15,11.00
2012,09,21,02,16,11.00
2012,09,21,02,17,11.00
2012,09,21,02,18,11.00
2012,09,21,02,19,11.00
2012,09,21,02,20,11.00
2012,09,21,02,21,11.00
2012,09,21,02,22,11.00
2012,09,21,02,23,11.00
2012,09,21,02,24,11.00
2012,09,21,02,25,10.90
2012,09,21,02,26,10.90
2012,09,21,02,27,10.90
2012,09,21,02,28,10.90
2012,09,21,02,29,10.90
2012,09,21,02,30,10.90
2012,09,21,02,31,10.90
2012,09,21,02,32,11.00
2012,09,21,02,33,11.00
2012,09,21,02,34,11.00
2012,09,21,02,35,11.00
2012,09,21,02,36,11.10
2012,09,21,02,37,11.10
2012,09,21,02,38,11.10
2012,09,21,02,39,11.10
2012,09,21,02,40,11.10
2012,09,21,02,41,11.20
2012,09,21,02,42,11.20
2012,09,21,02,43,11.20
2012,09,21,02,44,11.20
2012,09,21,02,45,11.20
2012,09,21,02,46,11.20
2012,09,21,02,47,11.20
2012,09,21,02,48,11.20
2012,09,21,02,49,11.20
2012,09,21,02,50,11.30
2012,09,21,02,51,11.30
2012,09,21,02,52,11.30
2012,09,21,02,53,11.30
2012,09,21,02,54,11.30
2012,09,21,02,55,11.30
2012,09,21,02,56,11.40
2012,09,21,02,57,11.40
2012,09,21,02,58,11.40
2012,09,21,02,59,11.40
2012,09,21,03,00,11.40
2012,09,21,03,01,11.40
2012,09,21,03,02,11.40
2012,09,21,03,03,11.40
2012,09,21,03,06,11.40
2012,09,21,03,07,11.40
2012,09,21,03,08,11.40
2012,09,21,03,09,11.40
2012,09,21,03,10,11.40
2012,09,21,03,11,11.40
2012,09,21,03,12,11.40
2012,09,21,03,13,11.40
2012,09,21,03,14,11.40
2012,09,21,03,15,11.40
2012,09,21,03,16,11.40
2012,09,21,03,17,11.40
2012,09,21,03,18,11.40
2012,09,21,03,19,11.50
2012,09,21,03,20,11.50
2012,09,21,03,21,11.60
2012,09,21,03,22,11.60
2012,09,21,03,23,11.60
2012,09,21,03,24,11.60
2012,09,21,03,25,11.60
2012,09,21,03,26,11.60
2012,09,21,03,27,11.70
2012,09,21,03,28,11.70
2012,09,21,03,29,11.70
2012,09,21,03,30,11.70
2012,09,21,03,31,11.70
2012,09,21,03,32,11.80
2012,09,21,03,33,11.80
2012,09,21,03,34,11.80
2012,09,21,03,35,11.80
2012,09,21,03,36,11.80
2012,09,21,03,37,11.80
2012,09,21,03,38,11.90
2012,09,21,03,39,11.90
2012,09,21,03,40,11.90
2012,09,21,03,41,11.90
2012,09,21,03,42,11.90
2012,09,21,03,43,11.90
2012,09,21,03,44,11.90
2012,09,21,03,45,11.90
2012,09,21,03,46,12.00
2012,09,21,03,47,12.00
2012,09,21,03,48,12.00
2012,09,21,03,49,12.00
2012,09,21,03,50,12.00
2012,09,21,03,51,12.00
2012,09,21,03,52,12.00
2012,09,21,03,53,12.10
2012,09,21,03,54,12.10
2012,09,21,03,55,12.10
2012,09,21,03,56,12.00
2012,09,21,03,57,12.10
2012,09,21,03,58,12.10
2012,09,21,03,59,12.10
2012,09,21,04,00,12.10
2012,09,21,04,01,12.10
2012,09,21,04,02,12.10
2012,09,21,04,03,12.10
2012,09,21,04,04,12.10
2012,09,21,04,05,12.10
2012,09,21,04,06,12.10
2012,09,21,04,07,12.10
2012,09,21,04,08,12.10
2012,09,21,04,09,12.10
2012,09,21,04,10,12.10
2012,09,21,04,11,12.10
2012,09,21,04,12,12.10
2012,09,21,04,13,12.10
2012,09,21,04,14,12.10
2012,09,21,04,15,12.10
2012,09,21,04,16,12.10
2012,09,21,04,17,12.10
2012,09,21,04,18,12.10
2012,09,21,04,19,12.00
2012,09,21,04,20,12.00
2012,09,21,04,21,12.00
2012,09,21,04,22,12.00
2012,09,21,04,23,12.00
2012,09,21,04,24,12.00
2012,09,21,04,25,12.00
2012,09,21,04,26,12.00
2012,09,21,04,27,12.00
2012,09,21,04,28,12.00
2012,09,21,04,29,12.00
2012,09,21,04,30,12.00
2012,09,21,04,31,12.00
2012,09,21,04,32,12.10
2012,09,21,04,33,12.10
2012,09,21,04,34,12.10
2012,09,21,04,35,12.10
2012,09,21,04,36,12.10
2012,09,21,04,37,12.10
2012,09,21,04,38,12.10
2012,09,21,04,39,12.10
2012,09,21,04,40,12.10
2012,09,21,04,41,12.10
2012,09,21,04,42,12.10
2012,09,21,04,43,12.10
2012,09,21,04,44,12.10
2012,09,21,04,45,12.10
2012,09,21,04,46,12.10
2012,09,21,04,47,12.10
2012,09,21,04,48,12.10
2012,09,21,04,49,12.10
2012,09,21,04,50,12.10
2012,09,21,04,51,12.10
2012,09,21,04,52,12.10
2012,09,21,04,53,12.10
2012,09,21,04,54,12.10
2012,09,21,04,55,12.10
2012,09,21,04,56,12.10
2012,09,21,04,57,12.10
2012,09,21,04,58,12.10
2012,09,21,04,59,12.10
2012,09,21,05,00,12.10
2012,09,21,05,01,12.10
2012,09,21,05,02,12.10
2012,09,21,05,03,12.10
2012,09,21,05,04,12.20
2012,09,21,05,05,12.20
2012,09,21,05,06,12.20
2012,09,21,05,07,12.20
2012,09,21,05,08,12.20
2012,09,21,05,09,12.20
2012,09,21,05,10,12.20
2012,09,21,05,11,12.20
2012,09,21,05,12,12.20
2012,09,21,05,13,12.20
2012,09,21,05,14,12.20
2012,09,21,05,15,12.20
2012,09,21,05,16,12.20
2012,09,21,05,17,12.20
2012,09,21,05,18,12.20
2012,09,21,05,19,12.20
2012,09,21,05,20,12.20
2012,09,21,05,21,12.20
2012,09,21,05,22,12.20
2012,09,21,05,23,12.20
2012,09,21,05,24,12.20
2012,09,21,05,25,12.20
2012,09,21,05,26,12.20
2012,09,21,05,27,12.20
2012,09,21,05,28,12.20
2012,09,21,05,29,12.20
2012,09,21,05,30,12.20
2012,09,21,05,31,12.20
2012,09,21,05,32,12.20
2012,09,21,05,33,12.30
2012,09,21,05,34,12.30
2012,09,21,05,35,12.30
2012,09,21,05,36,12.30
2012,09,21,05,37,12.30
2012,09,21,05,38,12.30
2012,09,21,05,39,12.30
2012,09,21,05,40,12.30
2012,09,21,05,41,12.30
2012,09,21,05,42,12.30
2012,09,21,05,43,12.30
2012,09,21,05,44,12.30
2012,09,21,05,45,12.30
2012,09,21,05,46,12.30
2012,09,21,05,47,12.30
2012,09,21,05,48,12.30
2012,09,21,05,49,12.30
2012,09,21,05,50,12.20
2012,09,21,05,51,12.20
2012,09,21,05,52,12.30
2012,09,21,05,53,12.30
2012,09,21,05,54,12.30
2012,09,21,05,55,12.30
2012,09,21,05,56,12.30
2012,09,21,05,57,12.30
2012,09,21,05,58,12.20
2012,09,21,05,59,12.30
2012,09,21,06,00,12.20
2012,09,21,06,01,12.30
2012,09,21,06,02,12.30
2012,09,21,06,03,12.30
2012,09,21,06,04,12.30
2012,09,21,06,05,12.30
2012,09,21,06,06,12.30
2012,09,21,06,07,12.30
2012,09,21,06,08,12.30
2012,09,21,06,09,12.30
2012,09,21,06,10,12.30
2012,09,21,06,11,12.30
2012,09,21,06,12,12.30
2012,09,21,06,13,12.30
2012,09,21,06,14,12.30
2012,09,21,06,15,12.30
2012,09,21,06,16,12.30
2012,09,21,06,17,12.30
2012,09,21,06,18,12.30
2012,09,21,06,19,12.30
2012,09,21,06,20,12.30
2012,09,21,06,21,12.30
2012,09,21,06,22,12.30
2012,09,21,06,23,12.30
2012,09,21,06,24,12.30
2012,09,21,06,25,12.30
2012,09,21,06,26,12.30
2012,09,21,06,27,12.30
2012,09,21,06,28,12.30
2012,09,21,06,29,12.30
2012,09,21,06,30,12.30
2012,09,21,06,31,12.30
2012,09,21,06,32,12.30
2012,09,21,06,33,12.30
2012,09,21,06,34,12.30
2012,09,21,06,35,12.30
2012,09,21,06,36,12.30
2012,09,21,06,37,12.30
2012,09,21,06,38,12.30
2012,09,21,06,39,12.30
2012,09,21,06,40,12.30
2012,09,21,06,41,12.30
2012,09,21,06,42,12.30
2012,09,21,06,43,12.30
2012,09,21,06,44,12.30
2012,09,21,06,45,12.30
2012,09,21,06,46,12.30
2012,09,21,06,47,12.30
2012,09,21,06,48,12.30
2012,09,21,06,49,12.30
2012,09,21,06,50,12.30
2012,09,21,06,51,12.30
2012,09,21,06,52,12.30
2012,09,21,06,53,12.30
2012,09,21,06,54,12.30
2012,09,21,06,55,12.30
2012,09,21,06,56,12.30
2012,09,21,06,57,12.30
2012,09,21,06,58,12.30
2012,09,21,06,59,12.30
2012,09,21,07,00,12.30
2012,09,21,07,01,12.30
2012,09,21,07,02,12.30
2012,09,21,07,03,12.30
2012,09,21,07,04,12.30
2012,09,21,07,05,12.30
2012,09,21,07,06,12.30
2012,09,21,07,07,12.30
2012,09,21,07,08,12.30
2012,09,21,07,09,12.30
2012,09,21,07,10,12.30
2012,09,21,07,11,12.30
2012,09,21,07,12,12.30
2012,09,21,07,13,12.30
2012,09,21,07,14,12.30
2012,09,21,07,15,12.40
2012,09,21,07,16,12.40
2012,09,21,07,17,12.40
2012,09,21,07,18,12.40
2012,09,21,07,19,12.40
2012,09,21,07,20,12.40
2012,09,21,07,21,12.40
2012,09,21,07,22,12.40
2012,09,21,07,23,12.40
2012,09,21,07,24,12.40
2012,09,21,07,25,12.40
2012,09,21,07,26,12.40
2012,09,21,07,27,12.40
2012,09,21,07,28,12.40
2012,09,21,07,29,12.40
2012,09,21,07,30,12.40
2012,09,21,07,31,12.40
2012,09,21,07,32,12.40
2012,09,21,07,33,12.40
2012,09,21,07,34,12.50
2012,09,21,07,35,12.50
2012,09,21,07,36,12.50
2012,09,21,07,37,12.50
2012,09,21,07,38,12.50
2012,09,21,07,39,12.50
2012,09,21,07,40,12.50
2012,09,21,07,41,12.50
2012,09,21,07,42,12.50
2012,09,21,07,43,12.50
2012,09,21,07,44,12.50
2012,09,21,07,45,12.50
2012,09,21,07,46,12.50
2012,09,21,07,47,12.50
2012,09,21,07,48,12.50
2012,09,21,07,49,12.50
2012,09,21,07,50,12.50
2012,09,21,07,51,12.50
2012,09,21,07,52,12.50
2012,09,21,07,53,12.50
2012,09,21,07,54,12.50
2012,09,21,07,55,12.50
2012,09,21,07,56,12.50
2012,09,21,07,57,12.50
2012,09,21,07,58,12.50
2012,09,21,07,59,12.50
2012,09,21,08,00,12.50
2012,09,21,08,01,12.50
2012,09,21,08,02,12.50
2012,09,21,08,03,12.50
2012,09,21,08,04,12.50
2012,09,21,08,05,12.50
2012,09,21,08,06,12.60
2012,09,21,08,07,12.60
2012,09,21,08,08,12.60
2012,09,21,08,09,12.60
2012,09,21,08,10,12.60
2012,09,21,08,11,12.60
2012,09,21,08,12,12.60
2012,09,21,08,13,12.60
2012,09,21,08,14,12.60
2012,09,21,08,15,12.60
2012,09,21,08,16,12.60
2012,09,21,08,17,12.60
2012,09,21,08,18,12.60
2012,09,21,08,19,12.60
2012,09,21,08,20,12.60
2012,09,21,08,21,12.60
2012,09,21,08,22,12.60
2012,09,21,08,23,12.60
2012,09,21,08,24,12.60
2012,09,21,08,25,12.60
2012,09,21,08,26,12.60
2012,09,21,08,27,12.60
2012,09,21,08,28,12.60
2012,09,21,08,29,12.60
2012,09,21,08,30,12.70
2012,09,21,08,31,12.70
2012,09,21,08,32,12.70
2012,09,21,08,33,12.70
2012,09,21,08,34,12.70
2012,09,21,08,35,12.70
2012,09,21,08,36,12.70
2012,09,21,08,37,12.70
2012,09,21,08,38,12.70
2012,09,21,08,39,12.70
2012,09,21,08,40,12.70
2012,09,21,08,41,12.70
2012,09,21,08,42,12.80
2012,09,21,08,43,12.80
2012,09,21,08,44,12.80
2012,09,21,08,45,12.80
2012,09,21,08,46,12.80
2012,09,21,08,47,12.80
2012,09,21,08,48,12.80
2012,09,21,08,49,12.80
2012,09,21,08,50,12.80
2012,09,21,08,51,12.80
2012,09,21,08,52,12.80
2012,09,21,08,53,12.80
2012,09,21,08,54,12.80
2012,09,21,08,55,12.80
2012,09,21,08,56,12.80
2012,09,21,08,57,12.80
2012,09,21,08,58,12.80
2012,09,21,08,59,12.80
2012,09,21,09,00,12.80
2012,09,21,09,01,12.80
2012,09,21,09,02,12.80
2012,09,21,09,03,12.80
2012,09,21,09,04,12.80
2012,09,21,09,05,12.80
2012,09,21,09,06,12.80
2012,09,21,09,07,12.80
2012,09,21,09,08,12.80
2012,09,21,09,09,12.90
2012,09,21,09,10,12.90
2012,09,21,09,11,12.90
2012,09,21,09,12,12.90
2012,09,21,09,13,12.90
2012,09,21,09,14,12.90
2012,09,21,09,15,12.90
2012,09,21,09,16,12.90
2012,09,21,09,17,12.90
2012,09,21,09,18,12.90
2012,09,21,09,19,12.90
2012,09,21,09,20,12.90
2012,09,21,09,21,12.90
2012,09,21,09,22,12.90
2012,09,21,09,23,12.90
2012,09,21,09,24,12.90
2012,09,21,09,25,12.90
2012,09,21,09,26,12.90
2012,09,21,09,27,12.90
2012,09,21,09,28,12.90
2012,09,21,09,29,12.90
2012,09,21,09,30,12.90
2012,09,21,09,31,12.90
2012,09,21,09,32,12.90
2012,09,21,09,33,12.90
2012,09,21,09,34,12.90
2012,09,21,09,35,12.90
2012,09,21,09,36,12.90
2012,09,21,09,37,12.90
2012,09,21,09,38,12.90
2012,09,21,09,39,12.90
2012,09,21,09,40,12.90
2012,09,21,09,41,12.90
2012,09,21,09,42,12.90
2012,09,21,09,43,12.90
2012,09,21,09,44,12.90
2012,09,21,09,45,12.90
2012,09,21,09,46,12.90
2012,09,21,09,47,12.90
2012,09,21,09,48,12.90
2012,09,21,09,49,12.90
2012,09,21,09,50,12.90
2012,09,21,09,51,13.00
2012,09,21,09,52,13.00
2012,09,21,09,53,13.00
2012,09,21,09,54,13.00
2012,09,21,09,55,13.00
2012,09,21,09,56,13.10
2012,09,21,09,57,13.10
2012,09,21,09,58,13.10
2012,09,21,09,59,13.10
2012,09,21,10,00,13.10
2012,09,21,10,01,13.10
2012,09,21,10,02,13.10
2012,09,21,10,03,13.10
2012,09,21,10,04,13.10
2012,09,21,10,05,13.10
2012,09,21,10,06,13.10
2012,09,21,10,07,13.20
2012,09,21,10,08,13.20
2012,09,21,10,09,13.20
2012,09,21,10,10,13.20
2012,09,21,10,11,13.20
2012,09,21,10,12,13.30
2012,09,21,10,13,13.30
2012,09,21,10,14,13.30
2012,09,21,10,15,13.30
2012,09,21,10,16,13.30
2012,09,21,10,17,13.40
2012,09,21,10,18,13.40
2012,09,21,10,19,13.40
2012,09,21,10,20,13.40
2012,09,21,10,21,13.40
2012,09,21,10,22,13.50
2012,09,21,10,23,13.50
2012,09,21,10,24,13.50
2012,09,21,10,25,13.60
2012,09,21,10,26,13.60
2012,09,21,10,27,13.60
2012,09,21,10,28,13.60
2012,09,21,10,29,13.60
2012,09,21,10,30,13.70
2012,09,21,10,31,13.70
2012,09,21,10,32,13.70
2012,09,21,10,33,13.70
2012,09,21,10,34,13.70
2012,09,21,10,35,13.70
2012,09,21,10,36,13.70
2012,09,21,10,37,13.70
2012,09,21,10,38,13.70
2012,09,21,10,39,13.70
2012,09,21,10,40,13.70
2012,09,21,10,41,13.70
2012,09,21,10,42,13.70
2012,09,21,10,43,13.70
2012,09,21,10,44,13.70
2012,09,21,10,45,13.70
2012,09,21,10,46,13.70
2012,09,21,10,47,13.70
2012,09,21,10,48,13.80
2012,09,21,10,49,13.70
2012,09,21,10,50,13.70
2012,09,21,10,51,13.70
2012,09,21,10,52,13.70
2012,09,21,10,53,13.80
2012,09,21,10,54,13.80
2012,09,21,10,55,13.80
2012,09,21,10,56,13.80
2012,09,21,10,57,13.80
2012,09,21,10,58,13.90
2012,09,21,10,59,13.90
2012,09,21,11,00,13.90
2012,09,21,11,01,13.90
2012,09,21,11,02,13.90
2012,09,21,11,03,14.00
2012,09,21,11,04,14.00
2012,09,21,11,05,14.00
2012,09,21,11,06,14.00
2012,09,21,11,07,14.10
2012,09,21,11,08,14.10
2012,09,21,11,09,14.10
2012,09,21,11,10,14.10
2012,09,21,11,11,14.10
2012,09,21,11,12,14.10
2012,09,21,11,13,14.10
2012,09,21,11,14,14.20
2012,09,21,11,15,14.20
2012,09,21,11,16,14.20
2012,09,21,11,17,14.20
2012,09,21,11,18,14.20
2012,09,21,11,19,14.20
2012,09,21,11,20,14.20
2012,09,21,11,21,14.30
2012,09,21,11,22,14.30
2012,09,21,11,23,14.30
2012,09,21,11,24,14.30
2012,09,21,11,25,14.40
2012,09,21,11,26,14.40
2012,09,21,11,27,14.40
2012,09,21,11,28,14.40
2012,09,21,11,29,14.50
2012,09,21,11,30,14.50
2012,09,21,11,31,14.60
2012,09,21,11,32,14.60
2012,09,21,11,33,14.60
2012,09,21,11,34,14.60
2012,09,21,11,35,14.60
2012,09,21,11,36,14.60
2012,09,21,11,37,14.60
2012,09,21,11,38,14.60
2012,09,21,11,39,14.60
2012,09,21,11,40,14.60
2012,09,21,11,41,14.70
2012,09,21,11,42,14.70
2012,09,21,11,43,14.80
2012,09,21,11,44,14.80
2012,09,21,11,45,14.80
2012,09,21,11,46,14.80
2012,09,21,11,47,14.80
2012,09,21,11,48,14.80
2012,09,21,11,49,14.90
2012,09,21,11,50,14.90
2012,09,21,11,51,14.90
2012,09,21,11,52,15.00
2012,09,21,11,53,15.00
2012,09,21,11,54,15.10
2012,09,21,11,55,15.10
2012,09,21,11,56,15.00
2012,09,21,11,57,15.00
2012,09,21,11,58,15.00
2012,09,21,11,59,15.00
2012,09,21,12,00,15.00
2012,09,21,12,01,15.10
2012,09,21,12,02,15.10
2012,09,21,12,03,15.10
2012,09,21,12,04,15.20
2012,09,21,12,05,15.30
2012,09,21,12,06,15.40
2012,09,21,12,07,15.50
2012,09,21,12,08,15.60
2012,09,21,12,09,15.60
2012,09,21,12,10,15.60
2012,09,21,12,11,15.60
2012,09,21,12,12,15.60
2012,09,21,12,13,15.70
2012,09,21,12,14,15.80
2012,09,21,12,15,15.80
2012,09,21,12,16,15.80
2012,09,21,12,17,15.80
2012,09,21,12,18,15.80
2012,09,21,12,19,15.80
2012,09,21,12,20,15.90
2012,09,21,12,21,15.90
2012,09,21,12,22,15.90
2012,09,21,12,23,15.90
2012,09,21,12,24,16.00
2012,09,21,12,25,16.00
2012,09,21,12,26,16.10
2012,09,21,12,27,16.10
2012,09,21,12,28,16.10
2012,09,21,12,29,16.10
2012,09,21,12,30,16.10
2012,09,21,12,31,16.20
2012,09,21,12,32,16.20
2012,09,21,12,33,16.20
2012,09,21,12,34,16.20
2012,09,21,12,35,16.30
2012,09,21,12,36,16.40
2012,09,21,12,37,16.50
2012,09,21,12,38,16.50
2012,09,21,12,39,16.50
2012,09,21,12,40,16.50
2012,09,21,12,41,16.50
2012,09,21,12,42,16.40
2012,09,21,12,43,16.40
2012,09,21,12,44,16.40
2012,09,21,12,45,16.40
2012,09,21,12,46,16.50
2012,09,21,12,47,16.50
2012,09,21,12,48,16.50
2012,09,21,12,49,16.60
2012,09,21,12,50,16.60
2012,09,21,12,51,16.60
2012,09,21,12,52,16.50
2012,09,21,12,53,16.50
2012,09,21,12,54,16.40
2012,09,21,12,55,16.30
2012,09,21,12,56,16.30
2012,09,21,12,57,16.30
2012,09,21,12,58,16.30
2012,09,21,12,59,16.30
2012,09,21,13,00,16.30
2012,09,21,13,01,16.20
2012,09,21,13,02,16.10
2012,09,21,13,03,16.10
2012,09,21,13,04,16.10
2012,09,21,13,05,16.00
2012,09,21,13,06,15.90
2012,09,21,13,07,15.90
2012,09,21,13,08,15.90
2012,09,21,13,09,15.70
2012,09,21,13,10,15.70
2012,09,21,13,11,15.70
2012,09,21,13,12,15.60
2012,09,21,13,13,15.60
2012,09,21,13,14,15.60
2012,09,21,13,15,15.50
2012,09,21,13,16,15.50
2012,09,21,13,17,15.50
2012,09,21,13,18,15.50
2012,09,21,13,19,15.50
2012,09,21,13,20,15.50
2012,09,21,13,21,15.50
2012,09,21,13,22,15.50
2012,09,21,13,23,15.50
2012,09,21,13,24,15.50
2012,09,21,13,25,15.40
2012,09,21,13,26,15.40
2012,09,21,13,27,15.40
2012,09,21,13,28,15.50
2012,09,21,13,29,15.50
2012,09,21,13,30,15.50
2012,09,21,13,31,15.50
2012,09,21,13,32,15.60
2012,09,21,13,33,15.60
2012,09,21,13,34,15.60
2012,09,21,13,35,15.60
2012,09,21,13,36,15.70
2012,09,21,13,37,15.70
2012,09,21,13,38,15.70
2012,09,21,13,39,15.70
2012,09,21,13,40,15.70
2012,09,21,13,41,15.80
2012,09,21,13,42,15.80
2012,09,21,13,43,15.90
2012,09,21,13,44,15.90
2012,09,21,13,45,16.00
2012,09,21,13,46,16.00
2012,09,21,13,47,16.00
2012,09,21,13,48,16.10
2012,09,21,13,49,16.20
2012,09,21,13,50,16.20
2012,09,21,13,51,16.20
2012,09,21,13,52,16.10
2012,09,21,13,53,16.10
2012,09,21,13,54,16.10
2012,09,21,13,55,16.20
2012,09,21,13,56,16.20
2012,09,21,13,57,16.20
2012,09,21,13,58,16.30
2012,09,21,13,59,16.30
2012,09,21,14,00,16.30
2012,09,21,14,01,16.30
2012,09,21,14,02,16.40
2012,09,21,14,03,16.50
2012,09,21,14,04,16.50
2012,09,21,14,05,16.60
2012,09,21,14,06,16.60
2012,09,21,14,07,16.70
2012,09,21,14,08,16.70
2012,09,21,14,09,16.80
2012,09,21,14,10,16.80
2012,09,21,14,11,16.80
2012,09,21,14,12,16.90
2012,09,21,14,13,16.90
2012,09,21,14,14,16.90
2012,09,21,14,15,17.00
2012,09,21,14,16,17.10
2012,09,21,14,17,17.10
2012,09,21,14,18,17.20
2012,09,21,14,19,17.20
2012,09,21,14,20,17.10
2012,09,21,14,21,17.10
2012,09,21,14,22,17.10
2012,09,21,14,23,17.10
2012,09,21,14,24,17.10
2012,09,21,14,25,17.00
2012,09,21,14,26,17.00
2012,09,21,14,27,17.00
2012,09,21,14,28,16.90
2012,09,21,14,29,17.00
2012,09,21,14,30,17.00
2012,09,21,14,31,17.00
2012,09,21,14,32,17.10
2012,09,21,14,33,17.10
2012,09,21,14,34,17.20
2012,09,21,14,35,17.20
2012,09,21,14,36,17.10
2012,09,21,14,37,17.10
2012,09,21,14,38,17.10
2012,09,21,14,39,17.10
2012,09,21,14,40,17.10
2012,09,21,14,41,17.10
2012,09,21,14,42,17.10
2012,09,21,14,43,17.20
2012,09,21,14,44,17.20
2012,09,21,14,45,17.20
2012,09,21,14,46,17.20
2012,09,21,14,47,17.20
2012,09,21,14,48,17.20
2012,09,21,14,49,17.20
2012,09,21,14,50,17.20
2012,09,21,14,51,17.20
2012,09,21,14,52,17.20
2012,09,21,14,53,17.30
2012,09,21,14,54,17.30
2012,09,21,14,55,17.30
2012,09,21,14,56,17.30
2012,09,21,14,57,17.30
2012,09,21,14,58,17.30
2012,09,21,14,59,17.30
2012,09,21,15,00,17.30
2012,09,21,15,01,17.20
2012,09,21,15,02,17.20
2012,09,21,15,03,17.20
2012,09,21,15,04,17.20
2012,09,21,15,05,17.10
2012,09,21,15,06,17.10
2012,09,21,15,07,17.10
2012,09,21,15,08,17.10
2012,09,21,15,09,17.20
2012,09,21,15,10,17.20
2012,09,21,15,11,17.30
2012,09,21,15,12,17.30
2012,09,21,15,13,17.30
2012,09,21,15,14,17.20
2012,09,21,15,15,17.20
2012,09,21,15,16,17.20
2012,09,21,15,17,17.20
2012,09,21,15,18,17.20
2012,09,21,15,19,17.20
2012,09,21,15,20,17.20
2012,09,21,15,21,17.20
2012,09,21,15,22,17.20
2012,09,21,15,23,17.10
2012,09,21,15,24,17.10
2012,09,21,15,25,17.10
2012,09,21,15,26,17.10
2012,09,21,15,27,17.20
2012,09,21,15,28,17.20
2012,09,21,15,29,17.20
2012,09,21,15,30,17.20
2012,09,21,15,31,17.20
2012,09,21,15,32,17.10
2012,09,21,15,33,17.10
2012,09,21,15,34,17.10
2012,09,21,15,35,17.10
2012,09,21,15,36,17.20
2012,09,21,15,37,17.20
2012,09,21,15,38,17.20
2012,09,21,15,39,17.20
2012,09,21,15,40,17.10
2012,09,21,15,41,17.10
2012,09,21,15,42,17.10
2012,09,21,15,43,17.10
2012,09,21,15,44,17.10
2012,09,21,15,45,17.10
2012,09,21,15,46,17.00
2012,09,21,15,47,17.00
2012,09,21,15,48,17.10
2012,09,21,15,49,17.00
2012,09,21,15,50,17.00
2012,09,21,15,51,16.90
2012,09,21,15,52,16.90
2012,09,21,15,53,16.80
2012,09,21,15,54,16.80
2012,09,21,15,55,16.80
2012,09,21,15,56,16.70
2012,09,21,15,57,16.70
2012,09,21,15,58,16.70
2012,09,21,15,59,16.70
2012,09,21,16,00,16.70
2012,09,21,16,01,16.70
2012,09,21,16,02,16.80
2012,09,21,16,03,16.80
2012,09,21,16,04,16.80
2012,09,21,16,05,16.80
2012,09,21,16,06,16.80
2012,09,21,16,07,16.80
2012,09,21,16,08,16.80
2012,09,21,16,09,16.80
2012,09,21,16,10,16.80
2012,09,21,16,11,16.80
2012,09,21,16,12,16.80
2012,09,21,16,13,16.80
2012,09,21,16,14,16.80
2012,09,21,16,15,16.80
2012,09,21,16,16,16.80
2012,09,21,16,17,16.80
2012,09,21,16,18,16.80
2012,09,21,16,19,16.70
2012,09,21,16,20,16.70
2012,09,21,16,21,16.70
2012,09,21,16,22,16.70
2012,09,21,16,23,16.70
2012,09,21,16,24,16.70
2012,09,21,16,25,16.60
2012,09,21,16,26,16.70
2012,09,21,16,27,16.70
2012,09,21,16,28,16.60
2012,09,21,16,29,16.60
2012,09,21,16,30,16.60
2012,09,21,16,31,16.60
2012,09,21,16,32,16.70
2012,09,21,16,33,16.70
2012,09,21,16,34,16.70
2012,09,21,16,35,16.70
2012,09,21,16,36,16.70
2012,09,21,16,37,16.60
2012,09,21,16,38,16.60
2012,09,21,16,39,16.60
2012,09,21,16,40,16.60
2012,09,21,16,41,16.50
2012,09,21,16,42,16.50
2012,09,21,16,43,16.50
2012,09,21,16,44,16.50
2012,09,21,16,45,16.60
2012,09,21,16,46,16.60
2012,09,21,16,47,16.50
2012,09,21,16,48,16.50
2012,09,21,16,49,16.50
2012,09,21,16,50,16.50
2012,09,21,16,51,16.50
2012,09,21,16,52,16.50
2012,09,21,16,53,16.50
2012,09,21,16,54,16.50
2012,09,21,16,55,16.60
2012,09,21,16,56,16.60
2012,09,21,16,57,16.60
2012,09,21,16,58,16.60
2012,09,21,16,59,16.70
2012,09,21,17,00,16.70
2012,09,21,17,01,16.70
2012,09,21,17,02,16.70
2012,09,21,17,03,16.70
2012,09,21,17,04,16.70
2012,09,21,17,05,16.70
2012,09,21,17,06,16.70
2012,09,21,17,07,16.70
2012,09,21,17,08,16.70
2012,09,21,17,09,16.70
2012,09,21,17,10,16.80
2012,09,21,17,11,16.70
2012,09,21,17,12,16.70
2012,09,21,17,13,16.60
2012,09,21,17,14,16.60
2012,09,21,17,15,16.50
2012,09,21,17,16,16.50
2012,09,21,17,17,16.40
2012,09,21,17,18,16.40
2012,09,21,17,19,16.40
2012,09,21,17,20,16.40
2012,09,21,17,21,16.50